sat.trackr.live / text

‹ back to catalog

STARLINK-36734

NORAD 67988 · 2026-039C

PAYLOAD ACTIVE UNKNOWN

§ Identity

Operator
Country
US
Launch date
2026-02-27
Launch site
AFETR
Launch vehicle
Mass (kg)
RCS (m²)

Purposes: comms

External: N2YO · Heavens-Above · Gunter

§ Orbital elements

Epoch: 2026-09-19T20:16:37.762464Z

Period
94.27 min
Inclination
42.9961°
Eccentricity
0.0000078
Mean motion
15.27586991 rev/d
Perigee alt
483.0 km
Apogee alt
483.1 km
Semi-major
6,861.2 km
B*
3.9925e-4
RAAN
32.7552°
Arg perigee
30.5123°
Mean anomaly
329.5733°
Rev number
3,139

§ Raw data

STARLINK-367341 67988U 26039C   26262.84488151  .00010743  00000+0  39925-3 0  99902 67988  42.9961  32.7552 0000078  30.5123 329.5733 15.27586991 31395

JSON: /api/v1/satellites/67988 · /tle

For live sub-satellite position, see the globe view (requires WebGL).

§ Visibility from observer

Set your observer location to see the next 7 days of passes ≥ 10°. The values pass through the URL so the page stays shareable.

No JS? Fill the form by hand. The geolocation button needs JavaScript.